User: anonymous   Login
Location: Kitchener
(43.2612°N, 80.5078°W)
Time: 06:21:47
(UTC+02:00)
Language:

Iridium 57 - Orbit

View from above orbital plane
View from above orbital plane
View from above satellite
View from above satellite

Ground track
Ground track

The orbit data is extracted from the following two-line orbital elements,

1 25273U 98019B   15216.47854947  .00000008  00000-0 -43311-5 0  9995
2 25273 086.3957 212.6461 0002380 088.7566 271.3902 14.34216435908211
Epoch (UTC): 04 August 2015 11:29:06
Eccentricity: 0.0002380
inclination: 86.3957°
perigee height: 776 km
apogee height: 779 km
right ascension of ascending node: 212.6461°
argument of perigee: 88.7566°
revolutions per day: 14.34216435
mean anomaly at epoch: 271.3902°
orbit number at epoch: 90821

The dashed part of the orbit path shows where the satellite is in the earth's shadow,  

DLR